Regional Weather Roundup
Issued by NWS Midland/Odessa, TX

Skip options and go directly to product.
Home | Oldest Version | Previous Version | Current Version | All | Graphics & Text | Save Text | Print | Product List | Glossary On

Skip product version selection by date and time.   
477
ASUS44 KMAF 290710
RWRMAF
MIDLAND AREA WEATHER ROUNDUP
NATIONAL WEATHER SERVICE MIDLAND TX
200 AM CDT MON AUG 29 2016

...IN SOUTHWEST TEXAS AND SOUTHEAST NEW MEXICO...

CITY           SKY/WX    TMP DP  RH WIND       PRES   REMARKS
ALPINE         CLOUDY    64  56  76 W6        30.22F
ANDREWS        NOT AVBL
ARTESIA        PTCLDY    66  66 100 SE17      30.17R
BIG SPRING     MOCLDY    73  69  86 NE6       30.12R
CARLSBAD       CLOUDY    67  61  81 E9        30.15R
DRYDEN           N/A     71  69  93 CALM      30.03S
FORT STOCKTON  PTCLDY    69  63  81 CALM      30.09S
GUAD PASS      CLOUDY    64  59  83 NE24      30.25R
HOBBS          LGT RAIN  63  63 100 NE7       30.21S
MARFA          PTCLDY   N/A N/A N/A NW5       30.22S
MIDLAND AIRPK  CLOUDY    76  66  69 S3        30.12R
MIDLAND INTL   CLOUDY    74  68  81 SW8       30.11R
ODESSA         MOCLDY    72  65  78 W8        30.13R
PECOS          CLOUDY    74  63  69 NE9       30.10R
PRESIDIO       NOT AVBL
SEMINOLE       RAIN      64  64  97 CALM      30.21R
SNYDER           N/A     73  67  83 SE5       30.10S
WINK           CLOUDY    66  63  90 NE18G26   30.13F
$$
...OTHER STATIONS IN TEXAS...

CITY           SKY/WX    TMP DP  RH WIND       PRES   REMARKS
ABILENE        CLEAR     71  68  90 E6        30.07F
AMARILLO       MOCLDY    66  62  87 E10       30.18S
AUSTIN         CLEAR     75  72  90 NE6       29.98F
BROWNSVILLE    CLEAR     79  75  87 CALM      29.91F
CORPUS CHRISTI PTCLDY    80  75  84 NE9       29.90F
DALLAS FTW     PTCLDY    76  71  85 CALM      30.03F
DEL RIO        CLOUDY    76  73  91 E3        29.98F
EL PASO        MOCLDY    71  60  68 S7        30.12S
HOUSTON INT    CLOUDY    75  73  93 N9        29.95F
LUBBOCK        CLOUDY    69  65  86 W9        30.15S
SAN ANGELO     MOCLDY    74  68  81 CALM      30.04F
SAN ANTONIO    MOCLDY    74  71  91 NE7       29.98F
WACO           CLEAR     72  71  97 NE5       30.01F
WICHITA FALLS  NOT AVBL
$$
...OTHER LOCATIONS IN NEW MEXICO...

CITY           SKY/WX    TMP DP  RH WIND       PRES   REMARKS
ALAMAGORDO     CLEAR     64  55  72 NE7       30.15S
ALBUQUERQUE    PTCLDY    65  45  48 CALM      30.24R
CANNON AFB     CLOUDY    65  64  94 S10       30.19S
CLOVIS         CLOUDY    64  57  77 S18       30.19F
HOLLOMAN AFB   CLEAR     68  57  67 W3        30.12R
ROSWELL        MOCLDY    69  62  78 E5        30.18R
RUIDOSO          N/A     55  48  76 S6        30.35S
SANTA FE       CLOUDY    59  42  53 E6        30.28S
TRUTH OR CONSE CLEAR     65  47  52 NW8       30.19R
TUCUMCARI      CLOUDY    67  55  65 S7        30.19R
$$

USA.gov is the U.S. government's official web portal to all federal, state and local government web resources and services.